Time,TemperatureF,DewpointF,PressureIn,WindDirection,WindDirectionDegrees,WindSpeedMPH,WindSpeedGustMPH,Humidity,HourlyPrecipIn,Conditions,Clouds,dailyrainin,SoftwareType,DateUTC
2013-03-21 00:00:00,14.6,11.9,30.02,WNW,295,2.0,2.0,89,0.00,,,0.00,Wunderground v.1.15,2013-03-21 04:00:00,
2013-03-21 00:05:00,14.4,11.8,30.02,WNW,288,2.0,2.0,89,0.00,,,0.00,Wunderground v.1.15,2013-03-21 04:05:00,
2013-03-21 00:10:00,14.1,11.5,30.02,WNW,287,2.0,2.0,89,0.00,,,0.00,Wunderground v.1.15,2013-03-21 04:10:00,
2013-03-21 00:15:00,14.4,12.0,30.02,WNW,293,2.0,2.0,90,0.00,,,0.00,Wunderground v.1.15,2013-03-21 04:15:00,
2013-03-21 00:20:00,14.6,11.9,30.02,WNW,297,3.0,4.0,89,0.00,,,0.00,Wunderground v.1.15,2013-03-21 04:20:00,
2013-03-21 00:30:00,14.5,11.9,30.01,WNW,295,3.0,3.0,89,0.00,,,0.00,Wunderground v.1.15,2013-03-21 04:30:00,
2013-03-21 00:35:00,14.3,11.7,30.01,WNW,295,2.0,3.0,89,0.00,,,0.00,Wunderground v.1.15,2013-03-21 04:35:00,
2013-03-21 00:40:00,14.3,11.9,30.01,WNW,301,2.0,2.0,90,0.00,,,0.00,Wunderground v.1.15,2013-03-21 04:40:00,
2013-03-21 00:45:00,14.5,12.1,30.01,WNW,298,1.0,2.0,90,0.00,,,0.00,Wunderground v.1.15,2013-03-21 04:45:00,
2013-03-21 00:50:00,14.6,12.2,30.01,WNW,293,2.0,2.0,90,0.00,,,0.00,Wunderground v.1.15,2013-03-21 04:50:00,
2013-03-21 00:55:00,14.6,12.2,30.01,WNW,290,2.0,2.0,90,0.00,,,0.00,Wunderground v.1.15,2013-03-21 04:55:00,
2013-03-21 01:00:00,14.6,12.2,30.01,West,274,2.0,2.0,90,0.00,,,0.00,Wunderground v.1.15,2013-03-21 05:00:00,
2013-03-21 01:10:00,14.5,11.9,30.01,WNW,297,2.0,3.0,89,0.00,,,0.00,Wunderground v.1.15,2013-03-21 05:10:00,
2013-03-21 01:15:00,14.4,11.8,30.01,WNW,290,3.0,3.0,89,0.00,,,0.00,Wunderground v.1.15,2013-03-21 05:15:00,
2013-03-21 01:20:00,14.3,11.7,30.01,West,281,3.0,3.0,89,0.00,,,0.00,Wunderground v.1.15,2013-03-21 05:20:00,
2013-03-21 01:25:00,14.3,11.7,30.01,NW,311,4.0,4.0,89,0.00,,,0.00,Wunderground v.1.15,2013-03-21 05:25:00,
2013-03-21 01:30:00,14.2,11.6,30.00,West,281,3.0,3.0,89,0.00,,,0.00,Wunderground v.1.15,2013-03-21 05:30:00,
2013-03-21 01:35:00,14.1,11.5,30.01,WNW,297,3.0,3.0,89,0.00,,,0.00,Wunderground v.1.15,2013-03-21 05:35:00,
2013-03-21 01:40:00,14.0,11.4,30.01,NW,306,3.0,3.0,89,0.00,,,0.00,Wunderground v.1.15,2013-03-21 05:40:00,
2013-03-21 01:45:00,13.9,11.3,30.01,NNW,330,2.0,3.0,89,0.00,,,0.00,Wunderground v.1.15,2013-03-21 05:45:00,
2013-03-21 01:55:00,13.6,11.0,30.00,WNW,294,2.0,2.0,89,0.00,,,0.00,Wunderground v.1.15,2013-03-21 05:55:00,
2013-03-21 02:00:00,13.6,11.2,30.00,WNW,295,2.0,2.0,90,0.00,,,0.00,Wunderground v.1.15,2013-03-21 06:00:00,
2013-03-21 02:10:00,14.1,11.7,30.00,West,276,2.0,2.0,90,0.00,,,0.00,Wunderground v.1.15,2013-03-21 06:10:00,
2013-03-21 02:15:00,14.0,11.6,30.00,West,276,1.0,2.0,90,0.00,,,0.00,Wunderground v.1.15,2013-03-21 06:15:00,
2013-03-21 02:20:00,13.8,11.4,30.00,SW,224,1.0,2.0,90,0.00,,,0.00,Wunderground v.1.15,2013-03-21 06:20:00,
2013-03-21 02:25:00,13.5,11.1,30.00,West,273,1.0,2.0,90,0.00,,,0.00,Wunderground v.1.15,2013-03-21 06:25:00,
2013-03-21 02:30:00,13.2,10.8,30.00,West,281,1.0,2.0,90,0.00,,,0.00,Wunderground v.1.15,2013-03-21 06:30:00,
2013-03-21 02:35:00,13.2,11.1,30.00,WNW,290,2.0,2.0,91,0.00,,,0.00,Wunderground v.1.15,2013-03-21 06:35:00,
2013-03-21 02:40:00,13.2,11.1,30.00,WNW,297,2.0,2.0,91,0.00,,,0.00,Wunderground v.1.15,2013-03-21 06:40:00,
2013-03-21 02:45:00,13.1,11.0,30.00,WNW,283,2.0,2.0,91,0.00,,,0.00,Wunderground v.1.15,2013-03-21 06:45:00,
2013-03-21 02:50:00,12.9,10.8,30.00,NW,304,2.0,2.0,91,0.00,,,0.00,Wunderground v.1.15,2013-03-21 06:50:00,
2013-03-21 03:00:00,12.8,10.7,30.00,WNW,293,2.0,3.0,91,0.00,,,0.00,Wunderground v.1.15,2013-03-21 07:00:00,
2013-03-21 03:10:00,13.0,10.9,29.99,West,270,3.0,3.0,91,0.00,,,0.00,Wunderground v.1.15,2013-03-21 07:10:00,
2013-03-21 03:15:00,12.8,10.7,29.99,WNW,287,2.0,3.0,91,0.00,,,0.00,Wunderground v.1.15,2013-03-21 07:15:00,
2013-03-21 03:20:00,13.0,10.9,29.99,WNW,300,2.0,2.0,91,0.00,,,0.00,Wunderground v.1.15,2013-03-21 07:20:00,
2013-03-21 03:30:00,12.7,10.6,29.99,WNW,292,2.0,2.0,91,0.00,,,0.00,Wunderground v.1.15,2013-03-21 07:30:00,
2013-03-21 03:35:00,12.9,10.8,29.99,WNW,301,2.0,2.0,91,0.00,,,0.00,Wunderground v.1.15,2013-03-21 07:35:00,
2013-03-21 03:40:00,12.9,10.8,29.99,NW,309,2.0,2.0,91,0.00,,,0.00,Wunderground v.1.15,2013-03-21 07:40:00,
2013-03-21 03:45:00,13.0,10.9,29.99,WNW,301,2.0,3.0,91,0.00,,,0.00,Wunderground v.1.15,2013-03-21 07:45:00,
2013-03-21 03:50:00,13.1,11.0,29.99,WNW,302,2.0,2.0,91,0.00,,,0.00,Wunderground v.1.15,2013-03-21 07:50:00,
2013-03-21 03:55:00,13.1,11.0,29.99,WNW,286,1.0,2.0,91,0.00,,,0.00,Wunderground v.1.15,2013-03-21 07:55:00,
2013-03-21 04:00:00,13.2,11.1,29.99,WNW,295,2.0,3.0,91,0.00,,,0.00,Wunderground v.1.15,2013-03-21 08:00:00,
2013-03-21 04:10:00,13.4,11.3,29.98,West,276,3.0,3.0,91,0.00,,,0.00,Wunderground v.1.15,2013-03-21 08:10:00,
2013-03-21 04:15:00,13.4,11.3,29.98,WNW,296,3.0,3.0,91,0.00,,,0.00,Wunderground v.1.15,2013-03-21 08:15:00,
2013-03-21 04:20:00,13.4,11.3,29.98,WNW,293,3.0,3.0,91,0.00,,,0.00,Wunderground v.1.15,2013-03-21 08:20:00,
2013-03-21 04:25:00,13.3,10.9,29.98,West,274,2.0,3.0,90,0.00,,,0.00,Wunderground v.1.15,2013-03-21 08:25:00,
2013-03-21 04:35:00,12.8,10.4,29.98,WSW,245,0.0,1.0,90,0.00,,,0.00,Wunderground v.1.15,2013-03-21 08:35:00,
2013-03-21 04:40:00,12.8,10.7,29.98,WSW,245,0.0,0.0,91,0.00,,,0.00,Wunderground v.1.15,2013-03-21 08:40:00,
2013-03-21 04:45:00,12.8,10.7,29.98,WSW,245,0.0,0.0,91,0.00,,,0.00,Wunderground v.1.15,2013-03-21 08:45:00,
2013-03-21 04:50:00,12.8,10.7,29.98,West,260,0.0,0.0,91,0.00,,,0.00,Wunderground v.1.15,2013-03-21 08:50:00,
2013-03-21 04:55:00,12.8,10.7,29.98,WNW,283,1.0,1.0,91,0.00,,,0.00,Wunderground v.1.15,2013-03-21 08:55:00,
2013-03-21 05:00:00,12.7,10.6,29.98,WNW,286,1.0,1.0,91,0.00,,,0.00,Wunderground v.1.15,2013-03-21 09:00:00,
2013-03-21 05:10:00,12.3,10.2,29.97,West,268,0.0,0.0,91,0.00,,,0.00,Wunderground v.1.15,2013-03-21 09:10:00,
2013-03-21 05:15:00,12.2,10.1,29.97,WSW,238,1.0,1.0,91,0.00,,,0.00,Wunderground v.1.15,2013-03-21 09:15:00,
2013-03-21 05:20:00,12.3,10.4,29.97,WNW,290,1.0,1.0,92,0.00,,,0.00,Wunderground v.1.15,2013-03-21 09:20:00,
2013-03-21 05:25:00,12.3,10.4,29.97,West,264,1.0,2.0,92,0.00,,,0.00,Wunderground v.1.15,2013-03-21 09:25:00,
2013-03-21 05:30:00,12.3,10.4,29.97,WSW,242,1.0,1.0,92,0.00,,,0.00,Wunderground v.1.15,2013-03-21 09:30:00,
2013-03-21 05:40:00,12.7,10.8,29.97,West,273,2.0,2.0,92,0.00,,,0.00,Wunderground v.1.15,2013-03-21 09:40:00,
2013-03-21 05:45:00,12.9,11.0,29.97,NW,314,2.0,2.0,92,0.00,,,0.00,Wunderground v.1.15,2013-03-21 09:45:00,
2013-03-21 05:50:00,12.8,10.7,29.97,WSW,256,0.0,0.0,91,0.00,,,0.00,Wunderground v.1.15,2013-03-21 09:50:00,
2013-03-21 05:55:00,12.7,10.6,29.97,West,276,0.0,0.0,91,0.00,,,0.00,Wunderground v.1.15,2013-03-21 09:55:00,
2013-03-21 06:00:00,12.7,10.8,29.97,SW,231,0.0,0.0,92,0.00,,,0.00,Wunderground v.1.15,2013-03-21 10:00:00,
2013-03-21 06:10:00,13.0,11.1,29.97,NW,304,1.0,1.0,92,0.00,,,0.00,Wunderground v.1.15,2013-03-21 10:10:00,
2013-03-21 06:15:00,13.3,11.4,29.97,WNW,285,1.0,1.0,92,0.00,,,0.00,Wunderground v.1.15,2013-03-21 10:15:00,
2013-03-21 06:20:00,13.6,11.7,29.97,West,276,1.0,2.0,92,0.00,,,0.00,Wunderground v.1.15,2013-03-21 10:20:00,
2013-03-21 06:25:00,13.8,11.9,29.97,West,269,1.0,2.0,92,0.00,,,0.00,Wunderground v.1.15,2013-03-21 10:25:00,
2013-03-21 06:30:00,14.0,12.1,29.97,WNW,284,1.0,2.0,92,0.00,,,0.00,Wunderground v.1.15,2013-03-21 10:30:00,
2013-03-21 06:35:00,14.3,12.4,29.97,West,260,1.0,2.0,92,0.00,,,0.00,Wunderground v.1.15,2013-03-21 10:35:00,
2013-03-21 06:45:00,14.7,12.8,29.97,West,273,2.0,2.0,92,0.00,,,0.00,Wunderground v.1.15,2013-03-21 10:45:00,
2013-03-21 06:50:00,14.8,12.9,29.97,West,266,2.0,3.0,92,0.00,,,0.00,Wunderground v.1.15,2013-03-21 10:50:00,
2013-03-21 06:55:00,15.0,13.1,29.97,WNW,298,2.0,3.0,92,0.00,,,0.00,Wunderground v.1.15,2013-03-21 10:55:00,
2013-03-21 07:00:00,15.2,13.3,29.98,WNW,293,2.0,2.0,92,0.00,,,0.00,Wunderground v.1.15,2013-03-21 11:00:00,
2013-03-21 07:10:00,15.5,13.6,29.98,WNW,288,2.0,2.0,92,0.00,,,0.00,Wunderground v.1.15,2013-03-21 11:10:00,
2013-03-21 07:20:00,15.7,13.8,29.98,NNW,329,2.0,2.0,92,0.00,,,0.00,Wunderground v.1.15,2013-03-21 11:20:00,
2013-03-21 07:25:00,15.8,13.9,29.98,WNW,287,2.0,2.0,92,0.00,,,0.00,Wunderground v.1.15,2013-03-21 11:25:00,
2013-03-21 07:30:00,15.9,14.0,29.98,West,280,3.0,3.0,92,0.00,,,0.00,Wunderground v.1.15,2013-03-21 11:30:00,
2013-03-21 07:35:00,16.0,14.1,29.98,WNW,295,3.0,3.0,92,0.00,,,0.00,Wunderground v.1.15,2013-03-21 11:35:00,
2013-03-21 07:40:00,16.0,14.1,29.99,WNW,301,3.0,3.0,92,0.00,,,0.00,Wunderground v.1.15,2013-03-21 11:40:00,
2013-03-21 07:50:00,16.2,14.3,29.99,West,277,1.0,1.0,92,0.00,,,0.00,Wunderground v.1.15,2013-03-21 11:50:00,
2013-03-21 07:55:00,16.2,14.3,29.99,West,269,1.0,1.0,92,0.00,,,0.00,Wunderground v.1.15,2013-03-21 11:55:00,
2013-03-21 08:00:00,16.3,14.4,29.99,NW,316,1.0,1.0,92,0.00,,,0.00,Wunderground v.1.15,2013-03-21 12:00:00,
2013-03-21 08:10:00,16.5,14.6,29.99,WNW,283,2.0,2.0,92,0.00,,,0.00,Wunderground v.1.15,2013-03-21 12:10:00,
2013-03-21 08:15:00,16.6,14.7,29.99,NW,304,2.0,3.0,92,0.00,,,0.00,Wunderground v.1.15,2013-03-21 12:15:00,
2013-03-21 08:20:00,16.7,14.8,29.99,WNW,292,2.0,2.0,92,0.00,,,0.00,Wunderground v.1.15,2013-03-21 12:20:00,
2013-03-21 08:25:00,16.8,14.9,29.99,WNW,290,2.0,2.0,92,0.00,,,0.00,Wunderground v.1.15,2013-03-21 12:25:00,
2013-03-21 08:30:00,16.7,14.5,29.99,WNW,288,1.0,1.0,91,0.00,,,0.00,Wunderground v.1.15,2013-03-21 12:30:00,
2013-03-21 08:40:00,16.8,14.9,29.99,WNW,300,1.0,2.0,92,0.00,,,0.00,Wunderground v.1.15,2013-03-21 12:40:00,
2013-03-21 08:45:00,17.0,15.1,29.99,WNW,295,2.0,2.0,92,0.00,,,0.00,Wunderground v.1.15,2013-03-21 12:45:00,
2013-03-21 08:50:00,17.3,15.4,29.99,WNW,296,2.0,3.0,92,0.00,,,0.00,Wunderground v.1.15,2013-03-21 12:50:00,
2013-03-21 09:00:00,17.8,15.9,29.99,West,281,2.0,3.0,92,0.00,,,0.00,Wunderground v.1.15,2013-03-21 13:00:00,
2013-03-21 09:10:00,18.3,16.4,29.99,West,267,2.0,3.0,92,0.00,,,0.00,Wunderground v.1.15,2013-03-21 13:10:00,
2013-03-21 09:15:00,18.5,16.3,29.99,NW,304,3.0,3.0,91,0.00,,,0.00,Wunderground v.1.15,2013-03-21 13:15:00,
2013-03-21 09:20:00,18.8,16.6,29.99,WSW,256,3.0,4.0,91,0.00,,,0.00,Wunderground v.1.15,2013-03-21 13:20:00,
2013-03-21 09:25:00,19.2,17.0,29.99,WNW,293,3.0,5.0,91,0.00,,,0.00,Wunderground v.1.15,2013-03-21 13:25:00,
2013-03-21 09:30:00,19.5,17.3,29.99,WNW,301,4.0,4.0,91,0.00,,,0.00,Wunderground v.1.15,2013-03-21 13:30:00,
2013-03-21 09:35:00,20.0,17.8,29.99,WNW,292,4.0,6.0,91,0.00,,,0.00,Wunderground v.1.15,2013-03-21 13:35:00,
2013-03-21 09:40:00,20.4,17.9,29.99,West,280,5.0,7.0,90,0.00,,,0.00,Wunderground v.1.15,2013-03-21 13:40:00,
2013-03-21 09:45:00,20.8,18.3,29.99,WNW,285,6.0,7.0,90,0.00,,,0.00,Wunderground v.1.15,2013-03-21 13:45:00,
2013-03-21 09:50:00,21.2,18.7,29.99,NW,310,6.0,6.0,90,0.00,,,0.00,Wunderground v.1.15,2013-03-21 13:50:00,
2013-03-21 10:00:00,21.6,18.9,29.99,WNW,285,5.0,5.0,89,0.00,,,0.00,Wunderground v.1.15,2013-03-21 14:00:00,
2013-03-21 10:10:00,21.8,18.8,30.00,WNW,300,5.0,8.0,88,0.00,,,0.00,Wunderground v.1.15,2013-03-21 14:10:00,
2013-03-21 10:15:00,22.0,19.0,30.00,WNW,290,6.0,8.0,88,0.00,,,0.00,Wunderground v.1.15,2013-03-21 14:15:00,
2013-03-21 10:20:00,22.1,19.1,30.00,WNW,300,7.0,7.0,88,0.00,,,0.00,Wunderground v.1.15,2013-03-21 14:20:00,
2013-03-21 10:30:00,22.4,19.1,30.00,WNW,293,6.0,6.0,87,0.00,,,0.00,Wunderground v.1.15,2013-03-21 14:30:00,
2013-03-21 10:35:00,22.5,19.5,30.00,WNW,291,6.0,6.0,88,0.00,,,0.00,Wunderground v.1.15,2013-03-21 14:35:00,
2013-03-21 10:40:00,22.6,19.6,30.00,NW,316,5.0,6.0,88,0.00,,,0.00,Wunderground v.1.15,2013-03-21 14:40:00,
2013-03-21 10:45:00,22.8,19.8,30.00,WNW,284,5.0,6.0,88,0.00,,,0.00,Wunderground v.1.15,2013-03-21 14:45:00,
2013-03-21 10:50:00,23.0,19.7,30.00,NW,305,6.0,7.0,87,0.00,,,0.00,Wunderground v.1.15,2013-03-21 14:50:00,
2013-03-21 10:55:00,23.4,20.4,30.00,WNW,300,6.0,7.0,88,0.00,,,0.00,Wunderground v.1.15,2013-03-21 14:55:00,
2013-03-21 11:00:00,23.6,20.3,30.00,WNW,297,6.0,6.0,87,0.00,,,0.00,Wunderground v.1.15,2013-03-21 15:00:00,
2013-03-21 11:10:00,24.1,20.2,30.00,WNW,294,8.0,9.0,85,0.00,,,0.00,Wunderground v.1.15,2013-03-21 15:10:00,
2013-03-21 11:15:00,24.3,20.2,30.00,WNW,288,8.0,9.0,84,0.00,,,0.00,Wunderground v.1.15,2013-03-21 15:15:00,
2013-03-21 11:20:00,24.4,20.3,30.00,WNW,283,8.0,17.0,84,0.00,,,0.00,Wunderground v.1.15,2013-03-21 15:20:00,
2013-03-21 11:25:00,24.2,19.2,30.00,WNW,299,9.0,17.0,81,0.00,,,0.00,Wunderground v.1.15,2013-03-21 15:25:00,
2013-03-21 11:35:00,24.4,20.0,30.00,WNW,302,11.0,11.0,83,0.00,,,0.00,Wunderground v.1.15,2013-03-21 15:35:00,
2013-03-21 11:40:00,24.7,20.0,30.00,WNW,295,9.0,11.0,82,0.00,,,0.00,Wunderground v.1.15,2013-03-21 15:40:00,
2013-03-21 11:45:00,24.9,19.9,30.00,WNW,295,8.0,11.0,81,0.00,,,0.00,Wunderground v.1.15,2013-03-21 15:45:00,
2013-03-21 11:50:00,24.8,19.5,30.00,West,278,9.0,9.0,80,0.00,,,0.00,Wunderground v.1.15,2013-03-21 15:50:00,
2013-03-21 11:55:00,24.8,19.8,30.01,WNW,287,10.0,10.0,81,0.00,,,0.00,Wunderground v.1.15,2013-03-21 15:55:00,
2013-03-21 12:00:00,24.9,19.9,30.01,WNW,283,11.0,11.0,81,0.00,,,0.00,Wunderground v.1.15,2013-03-21 16:00:00,
2013-03-21 12:10:00,25.0,20.8,30.01,WNW,300,8.0,8.0,84,0.00,,,0.00,Wunderground v.1.15,2013-03-21 16:10:00,
2013-03-21 12:15:00,24.6,20.2,30.01,WNW,290,9.0,14.0,83,0.00,,,0.00,Wunderground v.1.15,2013-03-21 16:15:00,
2013-03-21 12:20:00,24.4,20.0,30.01,NW,311,11.0,11.0,83,0.00,,,0.00,Wunderground v.1.15,2013-03-21 16:20:00,
2013-03-21 12:25:00,24.3,19.9,30.02,NW,307,11.0,11.0,83,0.00,,,0.00,Wunderground v.1.15,2013-03-21 16:25:00,
2013-03-21 12:30:00,24.0,19.9,30.02,WNW,295,12.0,12.0,84,0.00,,,0.00,Wunderground v.1.15,2013-03-21 16:30:00,
2013-03-21 12:40:00,24.1,19.7,30.02,WNW,290,11.0,11.0,83,0.00,,,0.00,Wunderground v.1.15,2013-03-21 16:40:00,
2013-03-21 12:45:00,24.4,20.3,30.02,West,274,10.0,11.0,84,0.00,,,0.00,Wunderground v.1.15,2013-03-21 16:45:00,
2013-03-21 12:50:00,24.4,20.0,30.02,WNW,297,10.0,13.0,83,0.00,,,0.00,Wunderground v.1.15,2013-03-21 16:50:00,
2013-03-21 12:55:00,24.3,19.6,30.02,WNW,302,10.0,13.0,82,0.00,,,0.00,Wunderground v.1.15,2013-03-21 16:55:00,
2013-03-21 13:00:00,24.2,20.1,30.03,WNW,290,10.0,10.0,84,0.00,,,0.00,Wunderground v.1.15,2013-03-21 17:00:00,
2013-03-21 13:10:00,24.0,19.9,30.02,WNW,284,13.0,13.0,84,0.00,,,0.00,Wunderground v.1.15,2013-03-21 17:10:00,
2013-03-21 13:15:00,24.3,20.2,30.02,WNW,297,13.0,15.0,84,0.00,,,0.00,Wunderground v.1.15,2013-03-21 17:15:00,
2013-03-21 13:20:00,24.5,20.1,30.02,NW,307,14.0,19.0,83,0.00,,,0.00,Wunderground v.1.15,2013-03-21 17:20:00,
2013-03-21 13:25:00,24.5,20.1,30.01,NW,325,15.0,19.0,83,0.00,,,0.00,Wunderground v.1.15,2013-03-21 17:25:00,
2013-03-21 13:30:00,24.8,20.4,30.02,WNW,299,15.0,15.0,83,0.00,,,0.00,Wunderground v.1.15,2013-03-21 17:30:00,
2013-03-21 13:35:00,24.9,20.2,30.02,WNW,285,14.0,15.0,82,0.00,,,0.00,Wunderground v.1.15,2013-03-21 17:35:00,
2013-03-21 13:40:00,25.5,21.1,30.02,WNW,301,12.0,12.0,83,0.00,,,0.00,Wunderground v.1.15,2013-03-21 17:40:00,
2013-03-21 13:45:00,25.4,20.7,30.02,WNW,300,11.0,14.0,82,0.00,,,0.00,Wunderground v.1.15,2013-03-21 17:45:00,
2013-03-21 13:50:00,25.4,20.7,30.02,WNW,298,12.0,12.0,82,0.00,,,0.00,Wunderground v.1.15,2013-03-21 17:50:00,
2013-03-21 13:55:00,25.5,20.2,30.02,WNW,294,13.0,14.0,80,0.00,,,0.00,Wunderground v.1.15,2013-03-21 17:55:00,
2013-03-21 14:00:00,25.6,20.3,30.02,WNW,292,14.0,14.0,80,0.00,,,0.00,Wunderground v.1.15,2013-03-21 18:00:00,
2013-03-21 14:10:00,25.7,20.4,30.02,WNW,293,14.0,21.0,80,0.00,,,0.00,Wunderground v.1.15,2013-03-21 18:10:00,
2013-03-21 14:15:00,25.8,20.5,30.02,West,271,14.0,21.0,80,0.00,,,0.00,Wunderground v.1.15,2013-03-21 18:15:00,
2013-03-21 14:20:00,26.1,21.1,30.02,WNW,293,13.0,13.0,81,0.00,,,0.00,Wunderground v.1.15,2013-03-21 18:20:00,
2013-03-21 14:25:00,26.2,20.3,30.01,WNW,285,11.0,15.0,78,0.00,,,0.00,Wunderground v.1.15,2013-03-21 18:25:00,
2013-03-21 14:30:00,26.1,20.2,30.01,WNW,295,13.0,15.0,78,0.00,,,0.00,Wunderground v.1.15,2013-03-21 18:30:00,
2013-03-21 14:35:00,26.0,20.4,30.01,WNW,300,15.0,23.0,79,0.00,,,0.00,Wunderground v.1.15,2013-03-21 18:35:00,
2013-03-21 14:40:00,25.9,20.3,30.01,West,271,15.0,15.0,79,0.00,,,0.00,Wunderground v.1.15,2013-03-21 18:40:00,
2013-03-21 14:50:00,25.8,20.5,30.01,NW,312,13.0,17.0,80,0.00,,,0.00,Wunderground v.1.15,2013-03-21 18:50:00,
2013-03-21 14:55:00,25.9,20.6,30.01,WNW,292,13.0,18.0,80,0.00,,,0.00,Wunderground v.1.15,2013-03-21 18:55:00,
2013-03-21 15:00:00,25.7,20.1,30.02,West,276,13.0,15.0,79,0.00,,,0.00,Wunderground v.1.15,2013-03-21 19:00:00,
2013-03-21 15:10:00,25.8,20.8,30.01,WNW,293,11.0,11.0,81,0.00,,,0.00,Wunderground v.1.15,2013-03-21 19:10:00,
2013-03-21 15:20:00,25.5,20.5,30.02,WNW,299,13.0,14.0,81,0.00,,,0.00,Wunderground v.1.15,2013-03-21 19:20:00,
2013-03-21 15:25:00,25.3,20.0,30.01,WNW,298,14.0,14.0,80,0.00,,,0.00,Wunderground v.1.15,2013-03-21 19:25:00,
2013-03-21 15:30:00,25.3,20.3,30.01,WNW,295,13.0,13.0,81,0.00,,,0.00,Wunderground v.1.15,2013-03-21 19:30:00,
2013-03-21 15:35:00,25.7,20.4,30.02,WNW,289,10.0,13.0,80,0.00,,,0.00,Wunderground v.1.15,2013-03-21 19:35:00,
2013-03-21 15:40:00,25.5,20.2,30.01,WNW,297,11.0,11.0,80,0.00,,,0.00,Wunderground v.1.15,2013-03-21 19:40:00,
2013-03-21 15:45:00,25.3,20.0,30.01,WNW,291,12.0,13.0,80,0.00,,,0.00,Wunderground v.1.15,2013-03-21 19:45:00,
2013-03-21 15:55:00,25.4,20.1,30.01,WNW,284,10.0,15.0,80,0.00,,,0.00,Wunderground v.1.15,2013-03-21 19:55:00,
2013-03-21 16:00:00,25.4,20.1,30.01,WNW,289,12.0,12.0,80,0.00,,,0.00,Wunderground v.1.15,2013-03-21 20:00:00,
2013-03-21 16:10:00,26.4,20.8,30.01,NW,305,9.0,13.0,79,0.00,,,0.00,Wunderground v.1.15,2013-03-21 20:10:00,
2013-03-21 16:15:00,26.5,20.6,30.01,NW,314,9.0,13.0,78,0.00,,,0.00,Wunderground v.1.15,2013-03-21 20:15:00,
2013-03-21 16:25:00,26.5,20.3,30.01,WNW,293,11.0,12.0,77,0.00,,,0.00,Wunderground v.1.15,2013-03-21 20:25:00,
2013-03-21 16:30:00,26.5,20.3,30.01,WNW,302,11.0,15.0,77,0.00,,,0.00,Wunderground v.1.15,2013-03-21 20:30:00,
2013-03-21 16:35:00,26.3,19.8,30.01,WNW,294,11.0,15.0,76,0.00,,,0.00,Wunderground v.1.15,2013-03-21 20:35:00,
2013-03-21 16:40:00,26.3,20.1,30.01,WNW,292,11.0,11.0,77,0.00,,,0.00,Wunderground v.1.15,2013-03-21 20:40:00,
2013-03-21 16:45:00,27.0,20.7,30.02,WNW,285,11.0,11.0,77,0.00,,,0.00,Wunderground v.1.15,2013-03-21 20:45:00,
2013-03-21 16:50:00,27.4,20.5,30.02,NW,309,9.0,9.0,75,0.00,,,0.00,Wunderground v.1.15,2013-03-21 20:50:00,
2013-03-21 17:00:00,27.1,19.6,30.02,WNW,298,9.0,9.0,73,0.00,,,0.00,Wunderground v.1.15,2013-03-21 21:00:00,
2013-03-21 17:10:00,26.4,19.2,30.01,NNW,340,9.0,11.0,74,0.00,,,0.00,Wunderground v.1.15,2013-03-21 21:10:00,
2013-03-21 17:15:00,26.3,19.1,30.02,NW,307,8.0,11.0,74,0.00,,,0.00,Wunderground v.1.15,2013-03-21 21:15:00,
2013-03-21 17:20:00,26.3,19.1,30.02,NNW,343,8.0,9.0,74,0.00,,,0.00,Wunderground v.1.15,2013-03-21 21:20:00,
2013-03-21 17:30:00,25.8,18.3,30.02,NW,308,9.0,9.0,73,0.00,,,0.00,Wunderground v.1.15,2013-03-21 21:30:00,
2013-03-21 17:35:00,25.8,18.3,30.03,WNW,299,9.0,13.0,73,0.00,,,0.00,Wunderground v.1.15,2013-03-21 21:35:00,
2013-03-21 17:40:00,25.6,17.8,30.03,NW,307,8.0,11.0,72,0.00,,,0.00,Wunderground v.1.15,2013-03-21 21:40:00,
2013-03-21 17:45:00,25.6,17.8,30.02,WNW,285,9.0,14.0,72,0.00,,,0.00,Wunderground v.1.15,2013-03-21 21:45:00,
2013-03-21 17:50:00,25.6,18.1,30.02,WNW,287,9.0,12.0,73,0.00,,,0.00,Wunderground v.1.15,2013-03-21 21:50:00,
2013-03-21 17:55:00,25.7,18.2,30.02,North,352,10.0,12.0,73,0.00,,,0.00,Wunderground v.1.15,2013-03-21 21:55:00,
2013-03-21 18:00:00,25.7,18.2,30.02,NW,309,10.0,14.0,73,0.00,,,0.00,Wunderground v.1.15,2013-03-21 22:00:00,
2013-03-21 18:10:00,25.9,17.5,30.02,WNW,298,11.0,11.0,70,0.00,,,0.00,Wunderground v.1.15,2013-03-21 22:10:00,
2013-03-21 18:15:00,26.4,18.3,30.02,West,262,9.0,11.0,71,0.00,,,0.00,Wunderground v.1.15,2013-03-21 22:15:00,
2013-03-21 18:20:00,26.9,18.4,30.02,NW,306,9.0,10.0,70,0.00,,,0.00,Wunderground v.1.15,2013-03-21 22:20:00,
2013-03-21 18:25:00,26.9,18.1,30.01,WNW,292,9.0,14.0,69,0.00,,,0.00,Wunderground v.1.15,2013-03-21 22:25:00,
2013-03-21 18:35:00,27.0,18.2,30.01,WNW,302,11.0,11.0,69,0.00,,,0.00,Wunderground v.1.15,2013-03-21 22:35:00,
2013-03-21 18:40:00,27.1,18.3,30.01,West,276,10.0,10.0,69,0.00,,,0.00,Wunderground v.1.15,2013-03-21 22:40:00,
2013-03-21 18:45:00,26.9,17.7,30.01,WSW,254,10.0,10.0,68,0.00,,,0.00,Wunderground v.1.15,2013-03-21 22:45:00,
2013-03-21 18:50:00,26.7,17.6,30.01,WNW,283,11.0,11.0,68,0.00,,,0.00,Wunderground v.1.15,2013-03-21 22:50:00,
2013-03-21 18:55:00,26.0,17.2,30.01,WNW,285,11.0,12.0,69,0.00,,,0.00,Wunderground v.1.15,2013-03-21 22:55:00,
2013-03-21 19:00:00,26.0,17.2,30.02,NW,308,12.0,12.0,69,0.00,,,0.00,Wunderground v.1.15,2013-03-21 23:00:00,
2013-03-21 19:10:00,25.4,17.0,30.02,WNW,297,12.0,12.0,70,0.00,,,0.00,Wunderground v.1.15,2013-03-21 23:10:00,
2013-03-21 19:15:00,25.3,16.9,30.02,NW,304,12.0,12.0,70,0.00,,,0.00,Wunderground v.1.15,2013-03-21 23:15:00,
2013-03-21 19:20:00,25.3,17.2,30.02,WNW,300,11.0,11.0,71,0.00,,,0.00,Wunderground v.1.15,2013-03-21 23:20:00,
2013-03-21 19:25:00,25.3,17.2,30.02,WNW,288,10.0,11.0,71,0.00,,,0.00,Wunderground v.1.15,2013-03-21 23:25:00,
2013-03-21 19:30:00,25.3,17.5,30.02,NW,309,10.0,10.0,72,0.00,,,0.00,Wunderground v.1.15,2013-03-21 23:30:00,
2013-03-21 19:40:00,25.4,17.6,30.03,NNW,343,5.0,5.0,72,0.00,,,0.00,Wunderground v.1.15,2013-03-21 23:40:00,
2013-03-21 19:45:00,25.4,17.3,30.03,NW,314,5.0,9.0,71,0.00,,,0.00,Wunderground v.1.15,2013-03-21 23:45:00,
2013-03-21 19:50:00,25.3,17.2,30.02,WNW,302,6.0,6.0,71,0.00,,,0.00,Wunderground v.1.15,2013-03-21 23:50:00,
2013-03-21 19:55:00,25.2,17.1,30.02,NNW,332,7.0,7.0,71,0.00,,,0.00,Wunderground v.1.15,2013-03-21 23:55:00,
2013-03-21 20:00:00,25.2,17.1,30.02,WNW,300,7.0,12.0,71,0.00,,,0.00,Wunderground v.1.15,2013-03-22 00:00:00,
2013-03-21 20:10:00,25.0,17.2,30.02,NW,325,8.0,8.0,72,0.00,,,0.00,Wunderground v.1.15,2013-03-22 00:10:00,
2013-03-21 20:15:00,24.9,17.1,30.03,NW,315,8.0,8.0,72,0.00,,,0.00,Wunderground v.1.15,2013-03-22 00:15:00,
2013-03-21 20:20:00,24.9,17.5,30.03,WNW,295,7.0,8.0,73,0.00,,,0.00,Wunderground v.1.15,2013-03-22 00:20:00,
2013-03-21 20:25:00,24.8,17.4,30.03,NW,310,6.0,8.0,73,0.00,,,0.00,Wunderground v.1.15,2013-03-22 00:25:00,
2013-03-21 20:30:00,24.9,17.5,30.03,WNW,295,5.0,6.0,73,0.00,,,0.00,Wunderground v.1.15,2013-03-22 00:30:00,
2013-03-21 20:35:00,24.8,17.1,30.03,NW,316,5.0,6.0,72,0.00,,,0.00,Wunderground v.1.15,2013-03-22 00:35:00,
2013-03-21 20:45:00,24.8,17.1,30.03,North,359,7.0,8.0,72,0.00,,,0.00,Wunderground v.1.15,2013-03-22 00:45:00,
2013-03-21 20:50:00,24.8,17.4,30.02,WNW,287,8.0,8.0,73,0.00,,,0.00,Wunderground v.1.15,2013-03-22 00:50:00,
2013-03-21 20:55:00,24.8,17.7,30.02,NW,304,6.0,8.0,74,0.00,,,0.00,Wunderground v.1.15,2013-03-22 00:55:00,
2013-03-21 21:00:00,24.8,17.4,30.02,WNW,299,5.0,5.0,73,0.00,,,0.00,Wunderground v.1.15,2013-03-22 01:00:00,
2013-03-21 21:10:00,24.8,17.4,30.02,WNW,284,4.0,4.0,73,0.00,,,0.00,Wunderground v.1.15,2013-03-22 01:10:00,
2013-03-21 21:15:00,24.8,17.4,30.03,NW,310,6.0,6.0,73,0.00,,,0.00,Wunderground v.1.15,2013-03-22 01:15:00,
2013-03-21 21:20:00,24.8,17.4,30.03,North,6,6.0,6.0,73,0.00,,,0.00,Wunderground v.1.15,2013-03-22 01:20:00,
2013-03-21 21:25:00,24.7,17.3,30.03,WNW,283,6.0,6.0,73,0.00,,,0.00,Wunderground v.1.15,2013-03-22 01:25:00,
2013-03-21 21:30:00,24.7,17.3,30.03,WNW,302,6.0,7.0,73,0.00,,,0.00,Wunderground v.1.15,2013-03-22 01:30:00,
2013-03-21 21:35:00,24.6,17.2,30.03,WNW,295,6.0,7.0,73,0.00,,,0.00,Wunderground v.1.15,2013-03-22 01:35:00,
2013-03-21 21:40:00,24.6,17.2,30.03,NW,321,6.0,8.0,73,0.00,,,0.00,Wunderground v.1.15,2013-03-22 01:40:00,
2013-03-21 21:50:00,24.6,17.2,30.03,NW,304,4.0,5.0,73,0.00,,,0.00,Wunderground v.1.15,2013-03-22 01:50:00,
2013-03-21 21:55:00,24.5,17.1,30.03,WNW,301,4.0,5.0,73,0.00,,,0.00,Wunderground v.1.15,2013-03-22 01:55:00,
2013-03-21 22:00:00,24.4,17.0,30.03,NNW,327,4.0,4.0,73,0.00,,,0.00,Wunderground v.1.15,2013-03-22 02:00:00,
2013-03-21 22:10:00,24.2,16.8,30.03,North,355,4.0,4.0,73,0.00,,,0.00,Wunderground v.1.15,2013-03-22 02:10:00,
2013-03-21 22:15:00,24.1,16.7,30.03,NW,316,3.0,4.0,73,0.00,,,0.00,Wunderground v.1.15,2013-03-22 02:15:00,
2013-03-21 22:20:00,24.0,16.6,30.03,WNW,283,3.0,3.0,73,0.00,,,0.00,Wunderground v.1.15,2013-03-22 02:20:00,
2013-03-21 22:25:00,24.0,16.3,30.03,North,5,4.0,4.0,72,0.00,,,0.00,Wunderground v.1.15,2013-03-22 02:25:00,
2013-03-21 22:30:00,23.9,16.5,30.03,NW,312,4.0,4.0,73,0.00,,,0.00,Wunderground v.1.15,2013-03-22 02:30:00,
2013-03-21 22:35:00,23.6,16.5,30.03,WNW,297,3.0,4.0,74,0.00,,,0.00,Wunderground v.1.15,2013-03-22 02:35:00,
2013-03-21 22:40:00,23.5,16.4,30.04,WNW,283,3.0,4.0,74,0.00,,,0.00,Wunderground v.1.15,2013-03-22 02:40:00,
2013-03-21 22:50:00,23.2,16.4,30.04,WNW,293,1.0,1.0,75,0.00,,,0.00,Wunderground v.1.15,2013-03-22 02:50:00,
2013-03-21 22:55:00,23.2,16.4,30.04,WNW,287,1.0,1.0,75,0.00,,,0.00,Wunderground v.1.15,2013-03-22 02:55:00,
2013-03-21 23:00:00,23.2,16.4,30.04,West,277,2.0,2.0,75,0.00,,,0.00,Wunderground v.1.15,2013-03-22 03:00:00,
2013-03-21 23:10:00,23.3,16.5,30.04,WNW,297,2.0,2.0,75,0.00,,,0.00,Wunderground v.1.15,2013-03-22 03:10:00,
2013-03-21 23:15:00,23.3,16.5,30.04,WNW,287,1.0,2.0,75,0.00,,,0.00,Wunderground v.1.15,2013-03-22 03:15:00,
2013-03-21 23:25:00,23.2,16.8,30.05,WNW,290,1.0,2.0,76,0.00,,,0.00,Wunderground v.1.15,2013-03-22 03:25:00,
2013-03-21 23:30:00,23.1,16.7,30.05,West,277,0.0,1.0,76,0.00,,,0.00,Wunderground v.1.15,2013-03-22 03:30:00,
2013-03-21 23:35:00,23.1,16.7,30.05,WNW,288,1.0,1.0,76,0.00,,,0.00,Wunderground v.1.15,2013-03-22 03:35:00,
2013-03-21 23:40:00,23.1,16.7,30.05,WNW,290,2.0,2.0,76,0.00,,,0.00,Wunderground v.1.15,2013-03-22 03:40:00,
2013-03-21 23:45:00,23.1,16.7,30.05,NW,304,2.0,2.0,76,0.00,,,0.00,Wunderground v.1.15,2013-03-22 03:45:00,
2013-03-21 23:55:00,23.1,17.0,30.05,WNW,297,2.0,2.0,77,0.00,,,0.00,Wunderground v.1.15,2013-03-22 03:55:00,